Flag for Poland Weather past 2 weeks in Radom, Poland

33 °F

Light mixture of precip. Overcast.

Feels Like: 29 °F
Forecast: 37 / 43 °F
Wind: 3 mph from Southwest

Location: Kielce

Current Time: Nov 29, 2015 at 1:23:19 AM

Latest Report: Nov 28, 2015 at 11:00 PM

Visibility: 2 mi

Pressure: 29.92 "Hg

Humidity: 87%

Dew point: 29 °F

Location of RadomLocation

Historic Weather in Radom — Graph


Radom temperature yesterday

Maximum temperature yesterday: 33 °F (at 11:00 PM)
Minimum temperature yesterday: 29 °F (at 5:00 PM)
Average temperature yesterday: 31 °F

Past Weeks' High & Low Weather Summary

High54 °F (Nov 18, 1:00 PM)100% (Nov 16, 8:00 PM)30.34 "Hg (Nov 16, 8:00 PM)
Low20 °F (Nov 26, 6:00 AM)58% (Nov 14, 2:00 PM)29.35 "Hg (Nov 21, 3:00 AM)
Average38 °F89%29.89 "Hg
* Reported Nov 14 1:00 AM — Nov 28 11:00 PM, Radom, Weather by CustomWeather, © 2015

Note: Actual official high and low records may vary slightly from our data, if they occured in-between our weather recording intervals... More about our weather records


Radom weather history for previous 24 hours

Time TempWeatherWind HumidityBarometerVisibility
11:00 PM
Sat, Nov 28
33 °FLight mixture of precip. Overcast.3 mph87%29.92 "Hg2 mi
10:00 PM31 °FOvercast.1 mph94%29.91 "Hg1 mi
9:00 PM31 °FLight snow. Low clouds.2 mph95%29.90 "Hg1 mi
8:00 PM31 °FLight snow. Low clouds.2 mph93%29.88 "Hg1 mi
7:00 PM30 °FLight snow. Low clouds.1 mph96%29.87 "Hg1 mi
6:00 PM30 °FLight snow. Low clouds.1 mph96%29.86 "Hg1 mi
5:00 PM29 °FLight snow. Low clouds.2 mph96%29.86 "Hg1 mi
4:00 PM30 °FLight freezing rain. Low clouds.3 mph96%29.85 "Hg1 mi
3:00 PM30 °FLight freezing rain. Low clouds.3 mph96%29.82 "Hg1 mi
2:00 PM30 °FLight freezing rain. Low clouds.2 mph96%29.82 "Hg1 mi
1:00 PM30 °FLight freezing rain. Low clouds.2 mph96%29.83 "Hg1 mi
12:00 PM30 °FLight freezing rain. Low clouds.2 mph96%29.85 "Hg2 mi
11:00 AM30 °FLight freezing rain. Low clouds.2 mph95%29.86 "Hg2 mi
10:00 AM31 °FLight freezing rain. Low clouds.1 mph95%29.89 "Hg2 mi
9:00 AM30 °FLight freezing rain. Low clouds.2 mph95%29.89 "Hg2 mi
7:00 AM31 °FLight freezing rain. Low clouds.2 mph95%29.90 "Hg2 mi
6:00 AM31 °FLow clouds.2 mph95%29.90 "Hg2 mi
5:00 AM31 °FFog.2 mph95%29.91 "Hg2 mi
4:00 AM31 °FFog.2 mph93%29.93 "Hg2 mi
3:00 AM31 °FFog.5 mph93%29.96 "Hg4 mi
2:00 AM31 °FFog.3 mph91%29.98 "Hg4 mi
Weather by CustomWeather, © 2015

See weather overviewHow to use our weather pages